Time,TemperatureF,DewpointF,PressureIn,WindDirection,WindDirectionDegrees,WindSpeedMPH,WindSpeedGustMPH,Humidity,HourlyPrecipIn,Conditions,Clouds,dailyrainin,SoftwareType,DateUTC
2013-05-25 00:01:00,44.1,37.0,30.30,WNW,302,0.0,0.0,76,0.00,,,0.00,WeatherCatV1.15B25,2013-05-25 04:01:00,
2013-05-25 00:02:00,44.2,37.1,30.30,WNW,302,0.0,0.0,76,0.00,,,0.00,WeatherCatV1.15B25,2013-05-25 04:02:00,
2013-05-25 00:03:00,44.2,37.1,30.30,WSW,257,0.0,2.0,76,0.00,,,0.00,WeatherCatV1.15B25,2013-05-25 04:03:00,
2013-05-25 00:07:00,44.2,37.1,30.30,East,79,2.0,2.0,76,0.00,,,0.00,WeatherCatV1.15B25,2013-05-25 04:07:00,
2013-05-25 00:12:00,44.2,37.1,30.31,WNW,296,0.0,7.0,76,0.00,,,0.00,WeatherCatV1.15B25,2013-05-25 04:12:00,
2013-05-25 00:17:00,44.2,37.1,30.30,SSE,155,0.0,2.0,76,0.00,,,0.00,WeatherCatV1.15B25,2013-05-25 04:17:00,
2013-05-25 00:22:00,44.2,37.1,30.30,West,271,0.0,0.0,76,0.00,,,0.00,WeatherCatV1.15B25,2013-05-25 04:22:00,
2013-05-25 00:27:00,44.2,37.1,30.30,North,0,0.0,0.0,76,0.00,,,0.00,WeatherCatV1.15B25,2013-05-25 04:27:00,
2013-05-25 00:32:00,44.2,37.5,30.30,WNW,287,0.0,0.0,77,0.00,,,0.00,WeatherCatV1.15B25,2013-05-25 04:32:00,
2013-05-25 00:37:00,44.3,37.6,30.30,WSW,242,0.0,0.0,77,0.00,,,0.00,WeatherCatV1.15B25,2013-05-25 04:37:00,
2013-05-25 00:42:00,44.3,37.6,30.30,WSW,250,2.0,5.0,77,0.00,,,0.00,WeatherCatV1.15B25,2013-05-25 04:42:00,
2013-05-25 00:47:00,44.3,37.6,30.30,WNW,294,0.0,1.0,77,0.00,,,0.00,WeatherCatV1.15B25,2013-05-25 04:47:00,
2013-05-25 00:52:00,44.3,37.6,30.30,West,261,0.0,4.0,77,0.00,,,0.00,WeatherCatV1.15B25,2013-05-25 04:52:00,
2013-05-25 00:57:00,44.4,37.6,30.30,NE,38,0.0,0.0,77,0.00,,,0.00,WeatherCatV1.15B25,2013-05-25 04:57:00,
2013-05-25 01:02:00,44.3,37.6,30.30,East,90,7.0,7.0,77,0.00,,,0.00,WeatherCatV1.15B25,2013-05-25 05:02:00,
2013-05-25 01:07:00,44.3,37.9,30.30,NW,315,0.0,3.0,78,0.00,,,0.00,WeatherCatV1.15B25,2013-05-25 05:07:00,
2013-05-25 01:12:00,44.3,37.6,30.30,NW,319,2.0,3.0,77,0.00,,,0.00,WeatherCatV1.15B25,2013-05-25 05:12:00,
2013-05-25 01:17:00,44.4,37.6,30.31,NNW,336,0.0,4.0,77,0.00,,,0.00,WeatherCatV1.15B25,2013-05-25 05:17:00,
2013-05-25 01:22:00,44.4,37.6,30.30,East,80,0.0,2.0,77,0.00,,,0.00,WeatherCatV1.15B25,2013-05-25 05:22:00,
2013-05-25 01:27:00,44.4,37.6,30.30,SW,218,1.0,2.0,77,0.00,,,0.00,WeatherCatV1.15B25,2013-05-25 05:27:00,
2013-05-25 01:32:00,44.5,37.7,30.30,North,355,5.0,5.0,77,0.00,,,0.00,WeatherCatV1.15B25,2013-05-25 05:32:00,
2013-05-25 01:37:00,44.6,37.8,30.30,NNE,25,0.0,3.0,77,0.00,,,0.00,WeatherCatV1.15B25,2013-05-25 05:37:00,
2013-05-25 01:42:00,44.5,37.7,30.30,SSE,159,0.0,0.0,77,0.00,,,0.00,WeatherCatV1.15B25,2013-05-25 05:42:00,
2013-05-25 01:47:00,44.4,37.6,30.30,WNW,297,0.0,0.0,77,0.00,,,0.00,WeatherCatV1.15B25,2013-05-25 05:47:00,
2013-05-25 01:52:00,44.4,37.6,30.31,SW,236,0.0,3.0,77,0.00,,,0.00,WeatherCatV1.15B25,2013-05-25 05:52:00,
2013-05-25 01:57:00,44.4,38.0,30.31,NW,304,0.0,3.0,78,0.00,,,0.00,WeatherCatV1.15B25,2013-05-25 05:57:00,
2013-05-25 02:02:00,44.5,38.1,30.30,SW,219,0.0,0.0,78,0.00,,,0.00,WeatherCatV1.15B25,2013-05-25 06:02:00,
2013-05-25 02:08:00,44.4,38.0,30.30,SW,225,3.0,3.0,78,0.00,,,0.00,WeatherCatV1.15B25,2013-05-25 06:08:00,
2013-05-25 02:13:00,44.4,38.0,30.31,NNW,327,0.0,6.0,78,0.00,,,0.00,WeatherCatV1.15B25,2013-05-25 06:13:00,
2013-05-25 02:18:00,44.5,38.1,30.30,West,277,0.0,8.0,78,0.00,,,0.00,WeatherCatV1.15B25,2013-05-25 06:18:00,
2013-05-25 02:23:00,44.6,38.2,30.30,WSW,250,0.0,0.0,78,0.00,,,0.00,WeatherCatV1.15B25,2013-05-25 06:23:00,
2013-05-25 02:28:00,44.6,38.2,30.30,WNW,292,0.0,1.0,78,0.00,,,0.00,WeatherCatV1.15B25,2013-05-25 06:28:00,
2013-05-25 02:33:00,44.6,38.2,30.30,North,9,0.0,6.0,78,0.00,,,0.00,WeatherCatV1.15B25,2013-05-25 06:33:00,
2013-05-25 02:38:00,44.6,38.5,30.30,SW,219,0.0,0.0,79,0.00,,,0.00,WeatherCatV1.15B25,2013-05-25 06:38:00,
2013-05-25 02:43:00,44.6,38.5,30.30,NNE,32,0.0,4.0,79,0.00,,,0.00,WeatherCatV1.15B25,2013-05-25 06:43:00,
2013-05-25 02:48:00,44.7,38.6,30.30,WSW,250,0.0,0.0,79,0.00,,,0.00,WeatherCatV1.15B25,2013-05-25 06:48:00,
2013-05-25 02:53:00,44.7,38.6,30.30,WSW,255,0.0,0.0,79,0.00,,,0.00,WeatherCatV1.15B25,2013-05-25 06:53:00,
2013-05-25 02:58:00,44.7,38.6,30.30,WNW,298,0.0,0.0,79,0.00,,,0.00,WeatherCatV1.15B25,2013-05-25 06:58:00,
2013-05-25 03:03:00,44.8,38.7,30.30,West,265,0.0,0.0,79,0.00,,,0.00,WeatherCatV1.15B25,2013-05-25 07:03:00,
2013-05-25 03:08:00,44.8,38.7,30.29,NNE,22,0.0,2.0,79,0.00,,,0.00,WeatherCatV1.15B25,2013-05-25 07:08:00,
2013-05-25 03:13:00,44.9,38.8,30.29,NNE,17,0.0,0.0,79,0.00,,,0.00,WeatherCatV1.15B25,2013-05-25 07:13:00,
2013-05-25 03:18:00,45.0,38.9,30.29,North,0,0.0,3.0,79,0.00,,,0.00,WeatherCatV1.15B25,2013-05-25 07:18:00,
2013-05-25 03:23:00,45.1,39.0,30.29,SW,229,2.0,7.0,79,0.00,,,0.00,WeatherCatV1.15B25,2013-05-25 07:23:00,
2013-05-25 03:28:00,45.2,38.8,30.29,WNW,289,0.0,2.0,78,0.00,,,0.00,WeatherCatV1.15B25,2013-05-25 07:28:00,
2013-05-25 03:33:00,45.3,38.9,30.29,NNW,345,0.0,6.0,78,0.00,,,0.00,WeatherCatV1.15B25,2013-05-25 07:33:00,
2013-05-25 03:38:00,45.3,39.2,30.29,NW,318,0.0,1.0,79,0.00,,,0.00,WeatherCatV1.15B25,2013-05-25 07:38:00,
2013-05-25 03:43:00,45.5,39.4,30.29,North,0,0.0,0.0,79,0.00,,,0.00,WeatherCatV1.15B25,2013-05-25 07:43:00,
2013-05-25 03:48:00,45.5,39.0,30.29,North,5,0.0,3.0,78,0.00,,,0.00,WeatherCatV1.15B25,2013-05-25 07:48:00,
2013-05-25 03:53:00,45.5,39.4,30.29,SSW,198,1.0,5.0,79,0.00,,,0.00,WeatherCatV1.15B25,2013-05-25 07:53:00,
2013-05-25 03:58:00,45.4,39.3,30.29,NNE,14,0.0,6.0,79,0.00,,,0.00,WeatherCatV1.15B25,2013-05-25 07:58:00,
2013-05-25 04:03:00,45.5,39.4,30.29,SW,227,0.0,3.0,79,0.00,,,0.00,WeatherCatV1.15B25,2013-05-25 08:03:00,
2013-05-25 04:08:00,45.5,39.4,30.29,WSW,238,0.0,3.0,79,0.00,,,0.00,WeatherCatV1.15B25,2013-05-25 08:08:00,
2013-05-25 04:13:00,45.3,38.9,30.29,North,0,1.0,4.0,78,0.00,,,0.00,WeatherCatV1.15B25,2013-05-25 08:13:00,
2013-05-25 04:18:00,45.3,38.9,30.30,North,355,0.0,6.0,78,0.00,,,0.00,WeatherCatV1.15B25,2013-05-25 08:18:00,
2013-05-25 04:23:00,45.3,38.9,30.29,NNE,26,0.0,1.0,78,0.00,,,0.00,WeatherCatV1.15B25,2013-05-25 08:23:00,
2013-05-25 04:28:00,45.1,38.7,30.29,NNE,24,0.0,0.0,78,0.00,,,0.00,WeatherCatV1.15B25,2013-05-25 08:28:00,
2013-05-25 04:33:00,45.0,38.2,30.30,North,355,0.0,1.0,77,0.00,,,0.00,WeatherCatV1.15B25,2013-05-25 08:33:00,
2013-05-25 04:38:00,44.9,37.8,30.30,WSW,244,0.0,2.0,76,0.00,,,0.00,WeatherCatV1.15B25,2013-05-25 08:38:00,
2013-05-25 04:43:00,44.7,37.6,30.30,WSW,244,0.0,3.0,76,0.00,,,0.00,WeatherCatV1.15B25,2013-05-25 08:43:00,
2013-05-25 04:48:00,44.7,37.3,30.30,NNE,15,0.0,0.0,75,0.00,,,0.00,WeatherCatV1.15B25,2013-05-25 08:48:00,
2013-05-25 04:53:00,44.6,37.2,30.30,North,5,0.0,2.0,75,0.00,,,0.00,WeatherCatV1.15B25,2013-05-25 08:53:00,
2013-05-25 04:58:00,44.7,36.9,30.30,NNW,334,0.0,0.0,74,0.00,,,0.00,WeatherCatV1.15B25,2013-05-25 08:58:00,
2013-05-25 05:03:00,44.8,37.0,30.30,NE,56,0.0,3.0,74,0.00,,,0.00,WeatherCatV1.15B25,2013-05-25 09:03:00,
2013-05-25 05:08:00,44.7,36.9,30.30,WSW,243,2.0,3.0,74,0.00,,,0.00,WeatherCatV1.15B25,2013-05-25 09:08:00,
2013-05-25 05:13:00,44.8,37.0,30.30,NNW,343,0.0,0.0,74,0.00,,,0.00,WeatherCatV1.15B25,2013-05-25 09:13:00,
2013-05-25 05:18:00,44.8,37.0,30.30,NNW,331,0.0,0.0,74,0.00,,,0.00,WeatherCatV1.15B25,2013-05-25 09:18:00,
2013-05-25 05:23:00,44.8,37.0,30.31,WNW,284,2.0,4.0,74,0.00,,,0.00,WeatherCatV1.15B25,2013-05-25 09:23:00,
2013-05-25 05:28:00,44.9,37.1,30.31,WSW,240,0.0,0.0,74,0.00,,,0.00,WeatherCatV1.15B25,2013-05-25 09:28:00,
2013-05-25 05:33:00,44.9,36.8,30.31,NW,326,0.0,0.0,73,0.00,,,0.00,WeatherCatV1.15B25,2013-05-25 09:33:00,
2013-05-25 05:38:00,45.0,36.9,30.30,WSW,245,0.0,0.0,73,0.00,,,0.00,WeatherCatV1.15B25,2013-05-25 09:38:00,
2013-05-25 05:43:00,45.2,37.1,30.31,SW,219,0.0,2.0,73,0.00,,,0.00,WeatherCatV1.15B25,2013-05-25 09:43:00,
2013-05-25 05:48:00,45.1,37.0,30.31,WSW,249,0.0,4.0,73,0.00,,,0.00,WeatherCatV1.15B25,2013-05-25 09:48:00,
2013-05-25 05:53:00,45.0,37.2,30.31,WSW,246,0.0,0.0,74,0.00,,,0.00,WeatherCatV1.15B25,2013-05-25 09:53:00,
2013-05-25 05:58:00,45.3,37.2,30.31,West,273,2.0,2.0,73,0.00,,,0.00,WeatherCatV1.15B25,2013-05-25 09:58:00,
2013-05-25 06:03:00,45.4,37.3,30.31,WNW,282,3.0,3.0,73,0.00,,,0.00,WeatherCatV1.15B25,2013-05-25 10:03:00,
2013-05-25 06:08:00,45.5,37.4,30.31,NE,49,0.0,2.0,73,0.00,,,0.00,WeatherCatV1.15B25,2013-05-25 10:08:00,
2013-05-25 06:13:00,45.5,37.4,30.31,WSW,253,3.0,5.0,73,0.00,,,0.00,WeatherCatV1.15B25,2013-05-25 10:13:00,
2013-05-25 06:18:00,45.5,37.4,30.32,SW,221,0.0,2.0,73,0.00,,,0.00,WeatherCatV1.15B25,2013-05-25 10:18:00,
2013-05-25 06:24:00,45.7,37.2,30.32,NNE,15,0.0,0.0,72,0.00,,,0.00,WeatherCatV1.15B25,2013-05-25 10:24:00,
2013-05-25 06:29:00,45.8,37.6,30.31,West,281,0.0,0.0,73,0.00,,,0.00,WeatherCatV1.15B25,2013-05-25 10:29:00,
2013-05-25 06:34:00,45.9,37.7,30.32,West,263,0.0,4.0,73,0.00,,,0.00,WeatherCatV1.15B25,2013-05-25 10:34:00,
2013-05-25 06:39:00,46.1,37.6,30.31,WSW,248,1.0,4.0,72,0.00,,,0.00,WeatherCatV1.15B25,2013-05-25 10:39:00,
2013-05-25 06:44:00,46.3,37.8,30.31,SSW,211,0.0,3.0,72,0.00,,,0.00,WeatherCatV1.15B25,2013-05-25 10:44:00,
2013-05-25 06:49:00,46.6,38.1,30.31,WNW,283,0.0,3.0,72,0.00,,,0.00,WeatherCatV1.15B25,2013-05-25 10:49:00,
2013-05-25 06:54:00,46.8,38.3,30.31,SSW,207,0.0,0.0,72,0.00,,,0.00,WeatherCatV1.15B25,2013-05-25 10:54:00,
2013-05-25 06:59:00,47.0,38.4,30.31,West,274,0.0,3.0,72,0.00,,,0.00,WeatherCatV1.15B25,2013-05-25 10:59:00,
2013-05-25 07:04:00,47.2,38.6,30.32,SE,134,0.0,1.0,72,0.00,,,0.00,WeatherCatV1.15B25,2013-05-25 11:04:00,
2013-05-25 07:09:00,47.3,38.7,30.32,WSW,238,0.0,3.0,72,0.00,,,0.00,WeatherCatV1.15B25,2013-05-25 11:09:00,
2013-05-25 07:14:00,47.3,38.7,30.32,SW,236,1.0,3.0,72,0.00,,,0.00,WeatherCatV1.15B25,2013-05-25 11:14:00,
2013-05-25 07:19:00,47.4,38.8,30.32,West,277,0.0,3.0,72,0.00,,,0.00,WeatherCatV1.15B25,2013-05-25 11:19:00,
2013-05-25 07:24:00,47.5,39.3,30.32,SSW,211,3.0,4.0,73,0.00,,,0.00,WeatherCatV1.15B25,2013-05-25 11:24:00,
2013-05-25 07:29:00,47.5,39.3,30.32,NNE,22,0.0,7.0,73,0.00,,,0.00,WeatherCatV1.15B25,2013-05-25 11:29:00,
2013-05-25 07:34:00,47.5,39.3,30.31,SE,146,2.0,2.0,73,0.00,,,0.00,WeatherCatV1.15B25,2013-05-25 11:34:00,
2013-05-25 07:39:00,47.7,39.8,30.31,NW,304,0.0,3.0,74,0.00,,,0.00,WeatherCatV1.15B25,2013-05-25 11:39:00,
2013-05-25 07:44:00,47.8,39.9,30.31,West,273,2.0,5.0,74,0.00,,,0.00,WeatherCatV1.15B25,2013-05-25 11:44:00,
2013-05-25 07:49:00,47.9,39.7,30.31,SE,146,0.0,7.0,73,0.00,,,0.00,WeatherCatV1.15B25,2013-05-25 11:49:00,
2013-05-25 07:54:00,48.1,39.5,30.31,West,271,1.0,12.0,72,0.00,,,0.00,WeatherCatV1.15B25,2013-05-25 11:54:00,
2013-05-25 07:59:00,48.4,39.8,30.32,North,350,4.0,6.0,72,0.00,,,0.00,WeatherCatV1.15B25,2013-05-25 11:59:00,
2013-05-25 08:04:00,48.7,39.7,30.32,NNW,340,4.0,4.0,71,0.00,,,0.00,WeatherCatV1.15B25,2013-05-25 12:04:00,
2013-05-25 08:09:00,49.1,39.7,30.32,NW,307,1.0,6.0,70,0.00,,,0.00,WeatherCatV1.15B25,2013-05-25 12:09:00,
2013-05-25 08:14:00,48.9,39.6,30.32,SE,144,0.0,5.0,70,0.00,,,0.00,WeatherCatV1.15B25,2013-05-25 12:14:00,
2013-05-25 08:19:00,49.3,40.3,30.32,West,269,2.0,6.0,71,0.00,,,0.00,WeatherCatV1.15B25,2013-05-25 12:19:00,
2013-05-25 08:24:00,49.4,40.0,30.32,WNW,286,0.0,5.0,70,0.00,,,0.00,WeatherCatV1.15B25,2013-05-25 12:24:00,
2013-05-25 08:29:00,49.3,39.9,30.32,North,0,0.0,7.0,70,0.00,,,0.00,WeatherCatV1.15B25,2013-05-25 12:29:00,
2013-05-25 08:34:00,49.4,40.4,30.32,NNW,342,0.0,9.0,71,0.00,,,0.00,WeatherCatV1.15B25,2013-05-25 12:34:00,
2013-05-25 08:39:00,49.6,40.6,30.32,WNW,293,2.0,3.0,71,0.00,,,0.00,WeatherCatV1.15B25,2013-05-25 12:39:00,
2013-05-25 08:44:00,49.7,41.0,30.32,SSW,209,0.0,4.0,72,0.00,,,0.00,WeatherCatV1.15B25,2013-05-25 12:44:00,
2013-05-25 08:49:00,49.5,40.5,30.33,SW,223,2.0,7.0,71,0.00,,,0.00,WeatherCatV1.15B25,2013-05-25 12:49:00,
2013-05-25 08:54:00,49.9,40.9,30.33,SW,219,0.0,5.0,71,0.00,,,0.00,WeatherCatV1.15B25,2013-05-25 12:54:00,
2013-05-25 08:59:00,50.0,40.6,30.33,West,276,3.0,5.0,70,0.00,,,0.00,WeatherCatV1.15B25,2013-05-25 12:59:00,
2013-05-25 09:04:00,50.0,40.6,30.33,North,355,0.0,4.0,70,0.00,,,0.00,WeatherCatV1.15B25,2013-05-25 13:04:00,
2013-05-25 09:09:00,50.2,41.5,30.33,West,269,0.0,4.0,72,0.00,,,0.00,WeatherCatV1.15B25,2013-05-25 13:09:00,
2013-05-25 09:14:00,50.4,41.7,30.33,NNE,16,2.0,3.0,72,0.00,,,0.00,WeatherCatV1.15B25,2013-05-25 13:14:00,
2013-05-25 09:19:00,50.3,41.3,30.33,WSW,244,4.0,6.0,71,0.00,,,0.00,WeatherCatV1.15B25,2013-05-25 13:19:00,
2013-05-25 09:24:00,49.9,41.6,30.33,West,269,3.0,4.0,73,0.00,,,0.00,WeatherCatV1.15B25,2013-05-25 13:24:00,
2013-05-25 09:29:00,49.6,41.7,30.33,WSW,258,4.0,6.0,74,0.00,,,0.00,WeatherCatV1.15B25,2013-05-25 13:29:00,
2013-05-25 09:34:00,50.0,42.0,30.34,West,260,2.0,5.0,74,0.00,,,0.00,WeatherCatV1.15B25,2013-05-25 13:34:00,
2013-05-25 09:39:00,50.4,41.7,30.34,SW,229,1.0,7.0,72,0.00,,,0.00,WeatherCatV1.15B25,2013-05-25 13:39:00,
2013-05-25 09:44:00,50.7,42.4,30.34,NE,49,0.0,4.0,73,0.00,,,0.00,WeatherCatV1.15B25,2013-05-25 13:44:00,
2013-05-25 09:49:00,51.2,42.5,30.34,NNW,348,2.0,6.0,72,0.00,,,0.00,WeatherCatV1.15B25,2013-05-25 13:49:00,
2013-05-25 09:54:00,50.8,41.7,30.34,West,277,3.0,3.0,71,0.00,,,0.00,WeatherCatV1.15B25,2013-05-25 13:54:00,
2013-05-25 09:59:00,50.7,42.0,30.33,West,279,1.0,5.0,72,0.00,,,0.00,WeatherCatV1.15B25,2013-05-25 13:59:00,
2013-05-25 10:04:00,51.0,43.0,30.34,NW,311,3.0,3.0,74,0.00,,,0.00,WeatherCatV1.15B25,2013-05-25 14:04:00,
2013-05-25 10:09:00,51.3,42.2,30.34,WSW,246,5.0,6.0,71,0.00,,,0.00,WeatherCatV1.15B25,2013-05-25 14:09:00,
2013-05-25 10:14:00,51.0,41.9,30.34,WNW,286,2.0,6.0,71,0.00,,,0.00,WeatherCatV1.15B25,2013-05-25 14:14:00,
2013-05-25 10:19:00,51.0,42.7,30.34,SW,230,1.0,5.0,73,0.00,,,0.00,WeatherCatV1.15B25,2013-05-25 14:19:00,
2013-05-25 10:24:00,51.0,42.3,30.34,WNW,300,6.0,6.0,72,0.00,,,0.00,WeatherCatV1.15B25,2013-05-25 14:24:00,
2013-05-25 10:29:00,51.4,43.0,30.34,West,276,0.0,2.0,73,0.00,,,0.00,WeatherCatV1.15B25,2013-05-25 14:29:00,
2013-05-25 10:34:00,51.5,42.8,30.35,SW,219,2.0,3.0,72,0.00,,,0.00,WeatherCatV1.15B25,2013-05-25 14:34:00,
2013-05-25 10:39:00,52.0,42.9,30.35,SW,214,4.0,6.0,71,0.00,,,0.00,WeatherCatV1.15B25,2013-05-25 14:39:00,
2013-05-25 10:44:00,51.5,42.4,30.35,WNW,298,5.0,8.0,71,0.00,,,0.00,WeatherCatV1.15B25,2013-05-25 14:44:00,
2013-05-25 10:49:00,50.8,41.7,30.36,West,261,0.0,4.0,71,0.00,,,0.00,WeatherCatV1.15B25,2013-05-25 14:49:00,
2013-05-25 10:54:00,50.9,42.6,30.35,WNW,290,0.0,5.0,73,0.00,,,0.00,WeatherCatV1.15B25,2013-05-25 14:54:00,
2013-05-25 10:59:00,51.2,42.5,30.36,West,266,3.0,6.0,72,0.00,,,0.00,WeatherCatV1.15B25,2013-05-25 14:59:00,
2013-05-25 11:04:00,51.8,43.8,30.35,West,275,0.0,7.0,74,0.00,,,0.00,WeatherCatV1.15B25,2013-05-25 15:04:00,
2013-05-25 11:09:00,51.3,42.6,30.35,WNW,283,3.0,9.0,72,0.00,,,0.00,WeatherCatV1.15B25,2013-05-25 15:09:00,
2013-05-25 11:14:00,50.8,41.7,30.35,WSW,258,3.0,7.0,71,0.00,,,0.00,WeatherCatV1.15B25,2013-05-25 15:14:00,
2013-05-25 11:19:00,51.3,43.3,30.35,WSW,256,0.0,2.0,74,0.00,,,0.00,WeatherCatV1.15B25,2013-05-25 15:19:00,
2013-05-25 11:24:00,51.6,43.2,30.35,NW,316,0.0,6.0,73,0.00,,,0.00,WeatherCatV1.15B25,2013-05-25 15:24:00,
2013-05-25 11:29:00,51.7,43.7,30.35,WSW,249,3.0,8.0,74,0.00,,,0.00,WeatherCatV1.15B25,2013-05-25 15:29:00,
2013-05-25 11:34:00,51.3,42.6,30.35,SW,234,3.0,10.0,72,0.00,,,0.00,WeatherCatV1.15B25,2013-05-25 15:34:00,
2013-05-25 11:39:00,51.1,42.4,30.34,WNW,284,1.0,11.0,72,0.00,,,0.00,WeatherCatV1.15B25,2013-05-25 15:39:00,
2013-05-25 11:44:00,51.5,43.5,30.35,West,269,3.0,7.0,74,0.00,,,0.00,WeatherCatV1.15B25,2013-05-25 15:44:00,
2013-05-25 11:49:00,51.6,42.9,30.34,SW,232,7.0,15.0,72,0.00,,,0.00,WeatherCatV1.15B25,2013-05-25 15:49:00,
2013-05-25 11:54:00,51.4,43.0,30.34,SW,234,4.0,5.0,73,0.00,,,0.00,WeatherCatV1.15B25,2013-05-25 15:54:00,
2013-05-25 11:59:00,51.3,42.6,30.35,NW,311,4.0,9.0,72,0.00,,,0.00,WeatherCatV1.15B25,2013-05-25 15:59:00,
2013-05-25 12:04:00,51.0,43.0,30.34,West,281,7.0,7.0,74,0.00,,,0.00,WeatherCatV1.15B25,2013-05-25 16:04:00,
2013-05-25 12:09:00,51.9,44.9,30.34,WNW,300,0.0,11.0,77,0.00,,,0.00,WeatherCatV1.15B25,2013-05-25 16:09:00,
2013-05-25 12:14:00,51.4,42.3,30.34,SSW,213,4.0,11.0,71,0.00,,,0.00,WeatherCatV1.15B25,2013-05-25 16:14:00,
2013-05-25 12:19:00,52.1,44.1,30.34,SW,227,0.0,4.0,74,0.00,,,0.00,WeatherCatV1.15B25,2013-05-25 16:19:00,
2013-05-25 12:24:00,52.5,43.4,30.34,WSW,250,4.0,6.0,71,0.00,,,0.00,WeatherCatV1.15B25,2013-05-25 16:24:00,
2013-05-25 12:29:00,51.8,42.0,30.33,SSW,213,5.0,6.0,69,0.00,,,0.00,WeatherCatV1.15B25,2013-05-25 16:29:00,
2013-05-25 12:34:00,51.8,42.0,30.33,West,273,6.0,6.0,69,0.00,,,0.00,WeatherCatV1.15B25,2013-05-25 16:34:00,
2013-05-25 12:39:00,52.2,42.3,30.32,SSE,159,0.0,6.0,69,0.00,,,0.00,WeatherCatV1.15B25,2013-05-25 16:39:00,
2013-05-25 12:44:00,53.1,45.0,30.32,WSW,245,0.0,2.0,74,0.00,,,0.00,WeatherCatV1.15B25,2013-05-25 16:44:00,
2013-05-25 12:49:00,53.3,42.2,30.32,West,271,0.0,4.0,66,0.00,,,0.00,WeatherCatV1.15B25,2013-05-25 16:49:00,
2013-05-25 12:54:00,53.3,43.0,30.32,WNW,284,1.0,6.0,68,0.00,,,0.00,WeatherCatV1.15B25,2013-05-25 16:54:00,
2013-05-25 12:59:00,53.2,42.1,30.32,WNW,288,2.0,5.0,66,0.00,,,0.00,WeatherCatV1.15B25,2013-05-25 16:59:00,
2013-05-25 13:04:00,52.7,40.5,30.32,West,269,0.0,4.0,63,0.00,,,0.00,WeatherCatV1.15B25,2013-05-25 17:04:00,
2013-05-25 13:09:00,52.2,40.4,30.32,SW,236,4.0,8.0,64,0.00,,,0.00,WeatherCatV1.15B25,2013-05-25 17:09:00,
2013-05-25 13:14:00,53.9,43.6,30.32,West,271,0.0,0.0,68,0.00,,,0.00,WeatherCatV1.15B25,2013-05-25 17:14:00,
2013-05-25 13:19:00,53.9,41.6,30.32,West,267,3.0,6.0,63,0.00,,,0.00,WeatherCatV1.15B25,2013-05-25 17:19:00,
2013-05-25 13:24:00,53.1,40.4,30.33,WSW,256,4.0,5.0,62,0.00,,,0.00,WeatherCatV1.15B25,2013-05-25 17:24:00,
2013-05-25 13:29:00,53.1,41.2,30.32,SW,231,4.0,6.0,64,0.00,,,0.00,WeatherCatV1.15B25,2013-05-25 17:29:00,
2013-05-25 13:34:00,53.3,40.6,30.33,WNW,296,0.0,5.0,62,0.00,,,0.00,WeatherCatV1.15B25,2013-05-25 17:34:00,
2013-05-25 13:39:00,53.3,39.8,30.32,SW,216,1.0,11.0,60,0.00,,,0.00,WeatherCatV1.15B25,2013-05-25 17:39:00,
2013-05-25 13:44:00,54.6,42.3,30.32,WNW,300,0.0,0.0,63,0.00,,,0.00,WeatherCatV1.15B25,2013-05-25 17:44:00,
2013-05-25 13:49:00,54.9,40.8,30.32,WNW,285,0.0,9.0,59,0.00,,,0.00,WeatherCatV1.15B25,2013-05-25 17:49:00,
2013-05-25 13:54:00,54.2,42.3,30.32,WSW,247,3.0,6.0,64,0.00,,,0.00,WeatherCatV1.15B25,2013-05-25 17:54:00,
2013-05-25 13:59:00,54.1,41.0,30.32,WNW,287,0.0,7.0,61,0.00,,,0.00,WeatherCatV1.15B25,2013-05-25 17:59:00,
2013-05-25 14:04:00,54.4,42.9,30.32,SW,223,7.0,7.0,65,0.00,,,0.00,WeatherCatV1.15B25,2013-05-25 18:04:00,
2013-05-25 14:09:00,54.4,42.5,30.31,WNW,293,0.0,5.0,64,0.00,,,0.00,WeatherCatV1.15B25,2013-05-25 18:09:00,
2013-05-25 14:14:00,54.2,41.0,30.31,WNW,292,4.0,4.0,61,0.00,,,0.00,WeatherCatV1.15B25,2013-05-25 18:14:00,
2013-05-25 14:19:00,53.8,40.2,30.31,West,260,3.0,12.0,60,0.00,,,0.00,WeatherCatV1.15B25,2013-05-25 18:19:00,
2013-05-25 14:24:00,53.8,41.5,30.31,WSW,237,6.0,9.0,63,0.00,,,0.00,WeatherCatV1.15B25,2013-05-25 18:24:00,
2013-05-25 14:29:00,54.2,41.0,30.30,WSW,246,4.0,5.0,61,0.00,,,0.00,WeatherCatV1.15B25,2013-05-25 18:29:00,
2013-05-25 14:34:00,54.6,41.4,30.30,SW,230,5.0,10.0,61,0.00,,,0.00,WeatherCatV1.15B25,2013-05-25 18:34:00,
2013-05-25 14:39:00,54.7,41.9,30.30,SW,216,13.0,13.0,62,0.00,,,0.00,WeatherCatV1.15B25,2013-05-25 18:39:00,
2013-05-25 14:44:00,54.8,42.0,30.29,SW,227,10.0,10.0,62,0.00,,,0.00,WeatherCatV1.15B25,2013-05-25 18:44:00,
2013-05-25 14:49:00,55.1,42.3,30.29,West,279,4.0,7.0,62,0.00,,,0.00,WeatherCatV1.15B25,2013-05-25 18:49:00,
2013-05-25 14:54:00,54.9,41.3,30.29,West,260,6.0,11.0,60,0.00,,,0.00,WeatherCatV1.15B25,2013-05-25 18:54:00,
2013-05-25 14:59:00,55.2,42.0,30.29,SW,221,6.0,15.0,61,0.00,,,0.00,WeatherCatV1.15B25,2013-05-25 18:59:00,
2013-05-25 15:04:00,55.1,41.0,30.29,West,275,6.0,13.0,59,0.00,,,0.00,WeatherCatV1.15B25,2013-05-25 19:04:00,
2013-05-25 15:09:00,54.9,42.5,30.30,WSW,244,8.0,13.0,63,0.00,,,0.00,WeatherCatV1.15B25,2013-05-25 19:09:00,
2013-05-25 15:14:00,54.9,42.1,30.29,WSW,254,1.0,13.0,62,0.00,,,0.00,WeatherCatV1.15B25,2013-05-25 19:14:00,
2013-05-25 15:19:00,55.4,42.2,30.29,WSW,240,5.0,12.0,61,0.00,,,0.00,WeatherCatV1.15B25,2013-05-25 19:19:00,
2013-05-25 15:24:00,55.7,42.9,30.29,West,265,4.0,12.0,62,0.00,,,0.00,WeatherCatV1.15B25,2013-05-25 19:24:00,
2013-05-25 15:29:00,56.1,42.4,30.29,West,267,4.0,10.0,60,0.00,,,0.00,WeatherCatV1.15B25,2013-05-25 19:29:00,
2013-05-25 15:34:00,56.3,42.2,30.29,WSW,255,4.0,12.0,59,0.00,,,0.00,WeatherCatV1.15B25,2013-05-25 19:34:00,
2013-05-25 15:39:00,56.3,43.0,30.30,SW,224,4.0,11.0,61,0.00,,,0.00,WeatherCatV1.15B25,2013-05-25 19:39:00,
2013-05-25 15:44:00,55.9,42.2,30.30,West,259,10.0,11.0,60,0.00,,,0.00,WeatherCatV1.15B25,2013-05-25 19:44:00,
2013-05-25 15:49:00,56.1,43.7,30.30,West,275,2.0,10.0,63,0.00,,,0.00,WeatherCatV1.15B25,2013-05-25 19:49:00,
2013-05-25 15:55:00,56.5,43.2,30.29,SW,234,5.0,13.0,61,0.00,,,0.00,WeatherCatV1.15B25,2013-05-25 19:55:00,
2013-05-25 16:00:00,56.2,43.4,30.30,SW,217,15.0,16.0,62,0.00,,,0.00,WeatherCatV1.15B25,2013-05-25 20:00:00,
2013-05-25 16:05:00,56.2,44.6,30.30,West,264,5.0,11.0,65,0.00,,,0.00,WeatherCatV1.15B25,2013-05-25 20:05:00,
2013-05-25 16:10:00,56.3,44.3,30.29,SSW,207,12.0,13.0,64,0.00,,,0.00,WeatherCatV1.15B25,2013-05-25 20:10:00,
2013-05-25 16:15:00,56.0,43.6,30.29,WNW,300,7.0,13.0,63,0.00,,,0.00,WeatherCatV1.15B25,2013-05-25 20:15:00,
2013-05-25 16:20:00,56.8,43.9,30.29,WSW,254,2.0,12.0,62,0.00,,,0.00,WeatherCatV1.15B25,2013-05-25 20:20:00,
2013-05-25 16:25:00,57.0,44.1,30.29,SW,234,6.0,11.0,62,0.00,,,0.00,WeatherCatV1.15B25,2013-05-25 20:25:00,
2013-05-25 16:30:00,56.8,44.3,30.29,West,276,4.0,6.0,63,0.00,,,0.00,WeatherCatV1.15B25,2013-05-25 20:30:00,
2013-05-25 16:35:00,57.5,43.7,30.29,SSW,213,11.0,12.0,60,0.00,,,0.00,WeatherCatV1.15B25,2013-05-25 20:35:00,
2013-05-25 16:40:00,57.3,43.5,30.29,WNW,297,6.0,12.0,60,0.00,,,0.00,WeatherCatV1.15B25,2013-05-25 20:40:00,
2013-05-25 16:45:00,56.7,43.0,30.28,West,261,4.0,10.0,60,0.00,,,0.00,WeatherCatV1.15B25,2013-05-25 20:45:00,
2013-05-25 16:50:00,56.6,42.9,30.28,WSW,250,5.0,12.0,60,0.00,,,0.00,WeatherCatV1.15B25,2013-05-25 20:50:00,
2013-05-25 16:55:00,57.1,43.3,30.28,WSW,251,7.0,7.0,60,0.00,,,0.00,WeatherCatV1.15B25,2013-05-25 20:55:00,
2013-05-25 17:00:00,56.9,43.6,30.28,West,279,6.0,10.0,61,0.00,,,0.00,WeatherCatV1.15B25,2013-05-25 21:00:00,
2013-05-25 17:05:00,57.0,43.7,30.28,SW,229,6.0,7.0,61,0.00,,,0.00,WeatherCatV1.15B25,2013-05-25 21:05:00,
2013-05-25 17:10:00,57.3,42.7,30.28,West,277,0.0,7.0,58,0.00,,,0.00,WeatherCatV1.15B25,2013-05-25 21:10:00,
2013-05-25 17:15:00,57.7,42.6,30.28,West,275,4.0,10.0,57,0.00,,,0.00,WeatherCatV1.15B25,2013-05-25 21:15:00,
2013-05-25 17:20:00,57.2,41.6,30.28,SW,229,6.0,7.0,56,0.00,,,0.00,WeatherCatV1.15B25,2013-05-25 21:20:00,
2013-05-25 17:25:00,57.3,41.3,30.28,West,270,0.0,6.0,55,0.00,,,0.00,WeatherCatV1.15B25,2013-05-25 21:25:00,
2013-05-25 17:30:00,57.3,41.3,30.28,SW,227,5.0,5.0,55,0.00,,,0.00,WeatherCatV1.15B25,2013-05-25 21:30:00,
2013-05-25 17:35:00,57.1,40.6,30.28,SW,229,4.0,8.0,54,0.00,,,0.00,WeatherCatV1.15B25,2013-05-25 21:35:00,
2013-05-25 17:40:00,56.9,39.9,30.28,WNW,303,0.0,9.0,53,0.00,,,0.00,WeatherCatV1.15B25,2013-05-25 21:40:00,
2013-05-25 17:45:00,57.1,41.1,30.29,West,278,2.0,4.0,55,0.00,,,0.00,WeatherCatV1.15B25,2013-05-25 21:45:00,
2013-05-25 17:50:00,57.6,42.5,30.28,WNW,298,0.0,0.0,57,0.00,,,0.00,WeatherCatV1.15B25,2013-05-25 21:50:00,
2013-05-25 17:55:00,57.2,41.2,30.28,SW,233,3.0,3.0,55,0.00,,,0.00,WeatherCatV1.15B25,2013-05-25 21:55:00,
2013-05-25 18:00:00,57.1,39.6,30.28,West,274,1.0,6.0,52,0.00,,,0.00,WeatherCatV1.15B25,2013-05-25 22:00:00,
2013-05-25 18:05:00,57.1,40.1,30.28,West,259,6.0,6.0,53,0.00,,,0.00,WeatherCatV1.15B25,2013-05-25 22:05:00,
2013-05-25 18:10:00,57.2,39.2,30.28,SW,225,3.0,7.0,51,0.00,,,0.00,WeatherCatV1.15B25,2013-05-25 22:10:00,
2013-05-25 18:15:00,57.0,39.5,30.28,West,265,2.0,9.0,52,0.00,,,0.00,WeatherCatV1.15B25,2013-05-25 22:15:00,
2013-05-25 18:20:00,57.1,40.6,30.28,West,264,0.0,0.0,54,0.00,,,0.00,WeatherCatV1.15B25,2013-05-25 22:20:00,
2013-05-25 18:25:00,57.0,39.5,30.28,West,272,2.0,11.0,52,0.00,,,0.00,WeatherCatV1.15B25,2013-05-25 22:25:00,
2013-05-25 18:30:00,56.7,38.3,30.27,West,263,4.0,9.0,50,0.00,,,0.00,WeatherCatV1.15B25,2013-05-25 22:30:00,
2013-05-25 18:35:00,56.2,38.3,30.27,WNW,300,1.0,12.0,51,0.00,,,0.00,WeatherCatV1.15B25,2013-05-25 22:35:00,
2013-05-25 18:40:00,55.9,38.0,30.27,West,267,0.0,9.0,51,0.00,,,0.00,WeatherCatV1.15B25,2013-05-25 22:40:00,
2013-05-25 18:45:00,55.8,37.4,30.27,North,349,1.0,5.0,50,0.00,,,0.00,WeatherCatV1.15B25,2013-05-25 22:45:00,
2013-05-25 18:50:00,55.9,37.0,30.27,SSW,203,4.0,7.0,49,0.00,,,0.00,WeatherCatV1.15B25,2013-05-25 22:50:00,
2013-05-25 18:55:00,55.9,37.5,30.27,WNW,287,1.0,9.0,50,0.00,,,0.00,WeatherCatV1.15B25,2013-05-25 22:55:00,
2013-05-25 19:00:00,56.0,38.1,30.27,WNW,283,0.0,5.0,51,0.00,,,0.00,WeatherCatV1.15B25,2013-05-25 23:00:00,
2013-05-25 19:05:00,56.1,38.2,30.26,WNW,291,3.0,8.0,51,0.00,,,0.00,WeatherCatV1.15B25,2013-05-25 23:05:00,
2013-05-25 19:10:00,55.8,36.9,30.26,WNW,283,3.0,5.0,49,0.00,,,0.00,WeatherCatV1.15B25,2013-05-25 23:10:00,
2013-05-25 19:15:00,55.5,37.2,30.26,West,272,2.0,12.0,50,0.00,,,0.00,WeatherCatV1.15B25,2013-05-25 23:15:00,
2013-05-25 19:20:00,55.1,37.8,30.26,WSW,252,3.0,4.0,52,0.00,,,0.00,WeatherCatV1.15B25,2013-05-25 23:20:00,
2013-05-25 19:25:00,54.6,37.3,30.26,WNW,294,4.0,5.0,52,0.00,,,0.00,WeatherCatV1.15B25,2013-05-25 23:25:00,
2013-05-25 19:30:00,54.2,37.0,30.26,WSW,244,5.0,5.0,52,0.00,,,0.00,WeatherCatV1.15B25,2013-05-25 23:30:00,
2013-05-25 19:35:00,53.8,37.1,30.26,WNW,286,3.0,3.0,53,0.00,,,0.00,WeatherCatV1.15B25,2013-05-25 23:35:00,
2013-05-25 19:40:00,53.6,37.4,30.26,West,263,0.0,3.0,54,0.00,,,0.00,WeatherCatV1.15B25,2013-05-25 23:40:00,
2013-05-25 19:45:00,53.5,37.7,30.26,West,263,0.0,2.0,55,0.00,,,0.00,WeatherCatV1.15B25,2013-05-25 23:45:00,
2013-05-25 19:50:00,53.4,37.2,30.26,WNW,300,0.0,2.0,54,0.00,,,0.00,WeatherCatV1.15B25,2013-05-25 23:50:00,
2013-05-25 19:55:00,53.3,36.6,30.26,SSW,202,0.0,3.0,53,0.00,,,0.00,WeatherCatV1.15B25,2013-05-25 23:55:00,
2013-05-25 20:00:00,53.1,36.9,30.26,SW,234,2.0,3.0,54,0.00,,,0.00,WeatherCatV1.15B25,2013-05-26 00:00:00,
2013-05-25 20:05:00,53.0,36.3,30.26,West,261,1.0,6.0,53,0.00,,,0.00,WeatherCatV1.15B25,2013-05-26 00:05:00,
2013-05-25 20:10:00,52.9,36.2,30.26,WNW,286,0.0,2.0,53,0.00,,,0.00,WeatherCatV1.15B25,2013-05-26 00:10:00,
2013-05-25 20:15:00,52.7,35.6,30.26,NW,312,0.0,0.0,52,0.00,,,0.00,WeatherCatV1.15B25,2013-05-26 00:15:00,
2013-05-25 20:20:00,52.5,35.9,30.26,West,268,1.0,4.0,53,0.00,,,0.00,WeatherCatV1.15B25,2013-05-26 00:20:00,
2013-05-25 20:25:00,52.4,35.3,30.26,WSW,246,0.0,10.0,52,0.00,,,0.00,WeatherCatV1.15B25,2013-05-26 00:25:00,
2013-05-25 20:30:00,52.3,34.7,30.25,WSW,238,2.0,3.0,51,0.00,,,0.00,WeatherCatV1.15B25,2013-05-26 00:30:00,
2013-05-25 20:35:00,52.1,35.0,30.25,West,260,0.0,5.0,52,0.00,,,0.00,WeatherCatV1.15B25,2013-05-26 00:35:00,
2013-05-25 20:40:00,52.0,35.4,30.25,WNW,283,0.0,1.0,53,0.00,,,0.00,WeatherCatV1.15B25,2013-05-26 00:40:00,
2013-05-25 20:45:00,51.9,35.8,30.25,WSW,257,1.0,5.0,54,0.00,,,0.00,WeatherCatV1.15B25,2013-05-26 00:45:00,
2013-05-25 20:50:00,51.9,35.8,30.25,SW,236,0.0,5.0,54,0.00,,,0.00,WeatherCatV1.15B25,2013-05-26 00:50:00,
2013-05-25 20:55:00,51.8,35.7,30.25,SSW,210,0.0,2.0,54,0.00,,,0.00,WeatherCatV1.15B25,2013-05-26 00:55:00,
2013-05-25 21:00:00,51.8,35.7,30.25,West,276,3.0,8.0,54,0.00,,,0.00,WeatherCatV1.15B25,2013-05-26 01:00:00,
2013-05-25 21:05:00,51.8,35.7,30.25,WNW,292,0.0,3.0,54,0.00,,,0.00,WeatherCatV1.15B25,2013-05-26 01:05:00,
2013-05-25 21:10:00,51.7,35.6,30.25,West,273,0.0,4.0,54,0.00,,,0.00,WeatherCatV1.15B25,2013-05-26 01:10:00,
2013-05-25 21:15:00,51.6,36.0,30.25,WSW,241,1.0,5.0,55,0.00,,,0.00,WeatherCatV1.15B25,2013-05-26 01:15:00,
2013-05-25 21:20:00,51.6,36.4,30.25,SW,232,0.0,4.0,56,0.00,,,0.00,WeatherCatV1.15B25,2013-05-26 01:20:00,
2013-05-25 21:25:00,51.4,36.2,30.25,WNW,291,0.0,3.0,56,0.00,,,0.00,WeatherCatV1.15B25,2013-05-26 01:25:00,
2013-05-25 21:30:00,51.3,36.6,30.25,SW,225,1.0,4.0,57,0.00,,,0.00,WeatherCatV1.15B25,2013-05-26 01:30:00,
2013-05-25 21:35:00,51.2,36.9,30.25,SW,214,3.0,5.0,58,0.00,,,0.00,WeatherCatV1.15B25,2013-05-26 01:35:00,
2013-05-25 21:40:00,51.3,37.0,30.25,West,269,1.0,5.0,58,0.00,,,0.00,WeatherCatV1.15B25,2013-05-26 01:40:00,
2013-05-25 21:45:00,51.2,37.4,30.25,West,274,0.0,4.0,59,0.00,,,0.00,WeatherCatV1.15B25,2013-05-26 01:45:00,
2013-05-25 21:50:00,51.1,36.4,30.25,WSW,241,0.0,3.0,57,0.00,,,0.00,WeatherCatV1.15B25,2013-05-26 01:50:00,
2013-05-25 21:55:00,50.9,36.7,30.25,WSW,242,2.0,2.0,58,0.00,,,0.00,WeatherCatV1.15B25,2013-05-26 01:55:00,
2013-05-25 22:00:00,50.9,36.7,30.25,West,260,0.0,3.0,58,0.00,,,0.00,WeatherCatV1.15B25,2013-05-26 02:00:00,
2013-05-25 22:05:00,50.9,37.1,30.25,ENE,57,0.0,2.0,59,0.00,,,0.00,WeatherCatV1.15B25,2013-05-26 02:05:00,
2013-05-25 22:10:00,50.8,37.0,30.25,NW,309,0.0,0.0,59,0.00,,,0.00,WeatherCatV1.15B25,2013-05-26 02:10:00,
2013-05-25 22:15:00,50.6,36.8,30.25,SW,224,0.0,2.0,59,0.00,,,0.00,WeatherCatV1.15B25,2013-05-26 02:15:00,
2013-05-25 22:20:00,50.6,36.8,30.25,West,261,0.0,3.0,59,0.00,,,0.00,WeatherCatV1.15B25,2013-05-26 02:20:00,
2013-05-25 22:25:00,50.6,36.8,30.25,SW,234,2.0,3.0,59,0.00,,,0.00,WeatherCatV1.15B25,2013-05-26 02:25:00,
2013-05-25 22:30:00,50.7,36.5,30.25,WSW,241,0.0,0.0,58,0.00,,,0.00,WeatherCatV1.15B25,2013-05-26 02:30:00,
2013-05-25 22:35:00,50.7,36.5,30.25,West,272,1.0,3.0,58,0.00,,,0.00,WeatherCatV1.15B25,2013-05-26 02:35:00,
2013-05-25 22:40:00,50.6,36.8,30.25,WSW,240,3.0,3.0,59,0.00,,,0.00,WeatherCatV1.15B25,2013-05-26 02:40:00,
2013-05-25 22:45:00,50.6,36.8,30.26,WSW,240,0.0,4.0,59,0.00,,,0.00,WeatherCatV1.15B25,2013-05-26 02:45:00,
2013-05-25 22:50:00,50.5,36.7,30.26,SW,234,0.0,0.0,59,0.00,,,0.00,WeatherCatV1.15B25,2013-05-26 02:50:00,
2013-05-25 22:55:00,50.2,36.9,30.26,SW,234,0.0,0.0,60,0.00,,,0.00,WeatherCatV1.15B25,2013-05-26 02:55:00,
2013-05-25 23:00:00,50.2,36.9,30.26,WNW,283,0.0,0.0,60,0.00,,,0.00,WeatherCatV1.15B25,2013-05-26 03:00:00,
2013-05-25 23:05:00,50.1,37.2,30.26,SW,221,3.0,4.0,61,0.00,,,0.00,WeatherCatV1.15B25,2013-05-26 03:05:00,
2013-05-25 23:10:00,50.3,37.0,30.26,WSW,241,2.0,2.0,60,0.00,,,0.00,WeatherCatV1.15B25,2013-05-26 03:10:00,
2013-05-25 23:15:00,50.4,37.5,30.26,WSW,242,1.0,1.0,61,0.00,,,0.00,WeatherCatV1.15B25,2013-05-26 03:15:00,
2013-05-25 23:20:00,50.1,37.6,30.26,WSW,242,0.0,0.0,62,0.00,,,0.00,WeatherCatV1.15B25,2013-05-26 03:20:00,
2013-05-25 23:25:00,49.8,37.3,30.26,SW,227,0.0,2.0,62,0.00,,,0.00,WeatherCatV1.15B25,2013-05-26 03:25:00,
2013-05-25 23:30:00,49.8,37.7,30.26,SW,228,0.0,2.0,63,0.00,,,0.00,WeatherCatV1.15B25,2013-05-26 03:30:00,
2013-05-25 23:35:00,49.9,37.4,30.26,South,187,1.0,3.0,62,0.00,,,0.00,WeatherCatV1.15B25,2013-05-26 03:35:00,
2013-05-25 23:40:00,49.9,37.4,30.26,SW,227,0.0,0.0,62,0.00,,,0.00,WeatherCatV1.15B25,2013-05-26 03:40:00,
2013-05-25 23:45:00,49.8,37.3,30.26,SW,226,0.0,0.0,62,0.00,,,0.00,WeatherCatV1.15B25,2013-05-26 03:45:00,
2013-05-25 23:50:00,49.6,37.5,30.26,SW,219,1.0,2.0,63,0.00,,,0.00,WeatherCatV1.15B25,2013-05-26 03:50:00,
2013-05-25 23:55:00,49.6,37.9,30.26,SSW,210,0.0,3.0,64,0.00,,,0.00,WeatherCatV1.15B25,2013-05-26 03:55:00,